| time (UTC) | temp F | wind direction | speed MPH | gust MPH | rain 1hr in | rain 24hr in | rain mn in | humidity % | barometer mb |
| 20260506100100 | 77 | 117 | 10.0 | 14.0 | 0.00 | 0.00 | 0.00 | 86 | 1011.3 |
| 20260506094601 | 77 | 121 | 7.0 | 14.0 | 0.00 | 0.00 | 0.00 | 85 | 1011.4 |
| 20260506093101 | 78 | 128 | 9.0 | 13.0 | 0.00 | 0.00 | 0.00 | 84 | 1011.2 |
| 20260506091556 | 78 | 112 | 7.0 | 13.0 | 0.00 | 0.00 | 0.00 | 84 | 1011.3 |
| 20260506090105 | 78 | 129 | 8.0 | 12.0 | 0.00 | 0.00 | 0.00 | 84 | 1011.3 |
| 20260506084606 | 79 | 104 | 9.0 | 13.0 | 0.00 | 0.00 | 0.00 | 83 | 1011.2 |
| 20260506083053 | 79 | 132 | 8.0 | 14.0 | 0.00 | 0.00 | 0.00 | 82 | 1011.2 |
| 20260506081549 | 79 | 128 | 10.0 | 15.0 | 0.00 | 0.00 | 0.00 | 82 | 1011.4 |
| 20260506073045 | 80 | 140 | 9.0 | 13.0 | 0.00 | 0.00 | 0.00 | 80 | 1011.4 |
| 20260506071542 | 80 | 143 | 12.0 | 17.0 | 0.00 | 0.00 | 0.00 | 79 | 1011.3 |
| 20260506070140 | 81 | 140 | 9.0 | 14.0 | 0.00 | 0.00 | 0.00 | 79 | 1011.4 |
| 20260506061534 | 82 | 132 | 13.0 | 19.0 | 0.00 | 0.00 | 0.00 | 76 | 1011.6 |
| 20260506044525 | 85 | 107 | 15.0 | 23.0 | 0.00 | 0.00 | 0.00 | 70 | 1011.8 |
| 20260506043024 | 85 | 126 | 12.0 | 20.0 | 0.00 | 0.00 | 0.00 | 69 | 1011.8 |
| 20260506041623 | 86 | 83 | 15.0 | 26.0 | 0.00 | 0.00 | 0.00 | 68 | 1011.6 |
| 20260506040022 | 87 | 140 | 16.0 | 25.0 | 0.00 | 0.00 | 0.00 | 67 | 1011.4 |
| 20260506034533 | 88 | 113 | 16.0 | 27.0 | 0.00 | 0.00 | 0.00 | 65 | 1011.0 |
| 20260506033021 | 88 | 79 | 13.0 | 21.0 | 0.00 | 0.00 | 0.00 | 64 | 1010.9 |
| 20260506031522 | 89 | 121 | 13.0 | 26.0 | 0.00 | 0.00 | 0.00 | 63 | 1010.5 |
| 20260506030022 | 90 | 119 | 18.0 | 26.0 | 0.00 | 0.00 | 0.00 | 62 | 1010.3 |
| 20260506024519 | 91 | 145 | 17.0 | 27.0 | 0.00 | 0.00 | 0.00 | 61 | 1010.1 |
| 20260506023019 | 92 | 118 | 13.0 | 24.0 | 0.00 | 0.00 | 0.00 | 60 | 1010.0 |
| 20260506021518 | 92 | 134 | 17.0 | 28.0 | 0.00 | 0.00 | 0.00 | 58 | 1009.7 |
| 20260506020017 | 93 | 131 | 10.0 | 22.0 | 0.00 | 0.00 | 0.00 | 57 | 1009.3 |
| 20260506014519 | 94 | 125 | 11.0 | 17.0 | 0.00 | 0.00 | 0.00 | 56 | 1008.9 |
| 20260506013033 | 94 | 112 | 10.0 | 16.0 | 0.00 | 0.00 | 0.00 | 54 | 1008.7 |
| 20260506011523 | 95 | 156 | 10.0 | 15.0 | 0.00 | 0.00 | 0.00 | 53 | 1008.7 |
| 20260506010016 | 96 | 110 | 9.0 | 13.0 | 0.00 | 0.00 | 0.00 | 52 | 1008.4 |
| 20260506004516 | 96 | 152 | 9.0 | 13.0 | 0.00 | 0.00 | 0.00 | 50 | 1008.4 |
| 20260506003013 | 96 | 117 | 11.0 | 16.0 | 0.00 | 0.00 | 0.00 | 50 | 1008.2 |
| 20260506001513 | 97 | 127 | 12.0 | 18.0 | 0.00 | 0.00 | 0.00 | 50 | 1008.0 |
| 20260506000012 | 98 | 139 | 11.0 | 17.0 | 0.00 | 0.00 | 0.00 | 49 | 1007.9 |
| 20260505234512 | 98 | 126 | 9.0 | 14.0 | 0.00 | 0.00 | 0.00 | 47 | 1007.8 |
| 20260505233018 | 98 | 135 | 13.0 | 19.0 | 0.00 | 0.00 | 0.00 | 47 | 1007.8 |
| 20260505231513 | 99 | 123 | 9.0 | 16.0 | 0.00 | 0.00 | 0.00 | 46 | 1007.7 |
| 20260505230011 | 101 | 128 | 8.0 | 16.0 | 0.00 | 0.00 | 0.00 | 45 | 1007.5 |
| 20260505224512 | 100 | 148 | 8.0 | 17.0 | 0.00 | 0.00 | 0.00 | 44 | 1007.5 |
| 20260505223009 | 101 | 160 | 7.0 | 18.0 | 0.00 | 0.00 | 0.00 | 44 | 1007.5 |
| 20260505221508 | 100 | 128 | 7.0 | 15.0 | 0.00 | 0.00 | 0.00 | 44 | 1007.4 |
| 20260505220015 | 101 | 142 | 6.0 | 13.0 | 0.00 | 0.00 | 0.00 | 44 | 1007.5 |
| 20260505214506 | 102 | 122 | 11.0 | 16.0 | 0.00 | 0.00 | 0.00 | 43 | 1007.6 |
| 20260505213005 | 102 | 116 | 5.0 | 15.0 | 0.00 | 0.00 | 0.00 | 43 | 1007.7 |
| 20260505211503 | 102 | 82 | 10.0 | 17.0 | 0.00 | 0.00 | 0.00 | 44 | 1007.9 |
| 20260505210107 | 100 | 103 | 4.0 | 15.0 | 0.00 | 0.00 | 0.00 | 46 | 1008.0 |
| 20260505204604 | 102 | 88 | 10.0 | 18.0 | 0.00 | 0.00 | 0.00 | 44 | 1008.3 |
| 20260505203106 | 102 | 182 | 4.0 | 16.0 | 0.00 | 0.00 | 0.00 | 44 | 1008.4 |
| 20260505201552 | 101 | 117 | 5.0 | 13.0 | 0.00 | 0.00 | 0.00 | 45 | 1008.8 |
| 20260505200058 | 101 | 126 | 4.0 | 16.0 | 0.00 | 0.00 | 0.00 | 45 | 1008.8 |
| 20260505194646 | 99 | 137 | 8.0 | 16.0 | 0.00 | 0.00 | 0.00 | 47 | 1009.0 |
| 20260505193057 | 100 | 133 | 10.0 | 14.0 | 0.00 | 0.00 | 0.00 | 45 | 1009.3 |
| 20260505191543 | 100 | 59 | 2.0 | 12.0 | 0.00 | 0.00 | 0.00 | 47 | 1009.7 |
| 20260505190034 | 100 | 75 | 5.0 | 13.0 | 0.00 | 0.00 | 0.00 | 47 | 1009.9 |
| 20260505184531 | 100 | 78 | 6.0 | 19.0 | 0.00 | 0.00 | 0.00 | 47 | 1010.1 |
| 20260505183033 | 98 | 71 | 9.0 | 20.0 | 0.00 | 0.00 | 0.00 | 50 | 1010.5 |
| 20260505181524 | 98 | 130 | 8.0 | 13.0 | 0.00 | 0.00 | 0.00 | 49 | 1010.8 |
| 20260505180018 | 98 | 119 | 5.0 | 20.0 | 0.00 | 0.00 | 0.00 | 50 | 1011.1 |
| 20260505174515 | 97 | 10 | 9.0 | 17.0 | 0.00 | 0.00 | 0.00 | 52 | 1011.2 |
| 20260505173014 | 96 | 92 | 8.0 | 16.0 | 0.00 | 0.00 | 0.00 | 52 | 1011.4 |
| 20260505171509 | 95 | 109 | 9.0 | 14.0 | 0.00 | 0.00 | 0.00 | 52 | 1011.4 |
| 20260505170005 | 95 | 84 | 7.0 | 17.0 | 0.00 | 0.00 | 0.00 | 54 | 1011.5 |
| 20260505164502 | 94 | 138 | 11.0 | 16.0 | 0.00 | 0.00 | 0.00 | 55 | 1011.6 |
| 20260505163104 | 93 | 207 | 7.0 | 16.0 | 0.00 | 0.00 | 0.00 | 56 | 1011.8 |
| 20260505161607 | 93 | 137 | 5.0 | 18.0 | 0.00 | 0.00 | 0.00 | 57 | 1011.8 |
| 20260505153046 | 90 | 127 | 8.0 | 15.0 | 0.00 | 0.00 | 0.00 | 62 | 1012.2 |
| 20260505151543 | 89 | 123 | 12.0 | 18.0 | 0.00 | 0.00 | 0.00 | 63 | 1012.3 |
| 20260505124510 | 79 | 110 | 7.0 | 11.0 | 0.00 | 0.00 | 0.00 | 87 | 1011.4 |
| 20260505123103 | 78 | 136 | 7.0 | 15.0 | 0.00 | 0.00 | 0.00 | 87 | 1011.2 |
| 20260505121558 | 78 | 121 | 6.0 | 12.0 | 0.00 | 0.00 | 0.00 | 88 | 1011.2 |
| 20260505120057 | 78 | 130 | 5.0 | 11.0 | 0.00 | 0.00 | 0.00 | 87 | 1011.1 |
| 20260505114550 | 77 | 119 | 6.0 | 13.0 | 0.00 | 0.00 | 0.00 | 87 | 1010.9 |
| 20260505113045 | 78 | 136 | 7.0 | 11.0 | 0.00 | 0.00 | 0.00 | 87 | 1010.9 |
| 20260505111543 | 78 | 153 | 8.0 | 11.0 | 0.00 | 0.00 | 0.00 | 87 | 1010.8 |
| 20260505101544 | 78 | 142 | 10.0 | 14.0 | 0.00 | 0.00 | 0.00 | 86 | 1010.2 |